Location: Tamazert
(32.6352°N, 5.2072°W)
Time: 09:18:06
(UTC+00:00)

Courier 1B Rocket - Pass Details

Date: 04 October 2022
Orbit: 920 x 1202 km, 28.3° (Epoch: 01 December)

Event Time Altitude Azimuth Distance (km) Brightness Sun altitude
Rises 20:09:56 0° 260° (W) 3,756 9.1 -27.7°
Reaches altitude 10° 20:12:44 10° 257° (WSW) 2,763 8.1 -28.2°
Enters shadow 20:18:55 59° 193° (SSW) 1,095 5.1 -29.5°
